This is the latest recevied weather packets stored in our database for station/object IA5FYI-13. If no packets are shown the sender has not sent any weather packets the latest 10 day(s).
| Time | Temp. | Humidity | Pressure | Rain* | Wind** | Luminosity | Snow |
|---|---|---|---|---|---|---|---|
| 1777624222 | 17.22° C | 44% | 1023 hPa | 0 mm | - | - | - |
| 1777623909 | 16.11° C | 41% | 1023.4 hPa | 0 mm | - | - | - |
| 1777623613 | 17.22° C | 39% | 1023 hPa | 0 mm | - | - | - |
| 1777623312 | 17.22° C | 40% | 1023 hPa | 0 mm | - | - | - |
| 1777623012 | 16.11° C | 40% | 1023 hPa | 0 mm | - | - | - |
| 1777622709 | 16.11° C | 41% | 1023 hPa | 0 mm | - | - | - |
| 1777622432 | 16.11° C | 41% | 1023 hPa | 0 mm | - | - | - |
| 1777622109 | 16.11° C | 40% | 1022.7 hPa | 0 mm | - | - | - |
| 1777621813 | 17.22° C | 40% | 1022.7 hPa | 0 mm | - | - | - |
| 1777621512 | 16.11° C | 40% | 1022.7 hPa | 0 mm | - | - | - |
| 1777621213 | 16.11° C | 39% | 1023 hPa | 0 mm | - | - | - |
| 1777620909 | 16.11° C | 41% | 1022.7 hPa | 0 mm | - | - | - |
| 1777620621 | 16.11° C | 40% | 1023.4 hPa | 0 mm | - | - | - |
| 1777620309 | 16.11° C | 42% | 1023 hPa | 0 mm | - | - | - |
| 1777620013 | 16.11° C | 43% | 1022.7 hPa | 0 mm | - | - | - |
| 1777619712 | 16.11° C | 41% | 1022.7 hPa | 0 mm | - | - | - |
| 1777619413 | 16.11° C | 39% | 1022.7 hPa | 0 mm | - | - | - |
| 1777619109 | 15° C | 41% | 1022.7 hPa | 0 mm | - | - | - |
| 1777618833 | 15° C | 40% | 1022.7 hPa | 0 mm | - | - | - |
| 1777618509 | 16.11° C | 42% | 1022.7 hPa | 0 mm | - | - | - |
| 1777618214 | 16.11° C | 42% | 1022.7 hPa | 0 mm | - | - | - |
| 1777617913 | 16.11° C | 41% | 1022.4 hPa | 0 mm | - | - | - |
| 1777617613 | 16.11° C | 42% | 1022.4 hPa | 0 mm | - | - | - |
| 1777617309 | 16.11° C | 42% | 1022.4 hPa | 0 mm | - | - | - |
| 1777617023 | 15° C | 42% | 1022.7 hPa | 0 mm | - | - | - |
* Rain latest hour (hover to see other rain measurements)
** Current wind speed in m/s (hover to see current wind gust speed)